Regional Weather Roundup
Issued by NWS

Home | Current Version | Previous Version | Graphics & Text | Print | Product List | Glossary Off
Versions: 1 2 3 4 5 6 7 8 9 10 11 12 13 14 15 16 17 18 19 20 21 22 23 24 25 26 27 28 29 30 31 32 33 34 35 36 37 38 39 40 41 42 43 44 45 46 47 48 49 50

000
ASUS43 KLSX 230607
RWRMO

WEATHER SUMMARY FOR MISSOURI
NATIONAL WEATHER SERVICE SPRINGFIELD MO
100 AM CDT SAT MAY 23 2015

NOTE: "FAIR" INDICATES FEW OR NO CLOUDS BELOW 12,000 FEET WITH NO
       SIGNIFICANT WEATHER AND/OR OBSTRUCTIONS TO VISIBILITY.
       CURRENT SKY AND/OR WEATHER CONDITIONS ARE NOT AVAILABLE FOR
       CHILLICOTHE AND FARMINGTON.

MOZ001>031-035>038-043-044-053-054-230700-
...NORTHERN AND WESTERN MISSOURI...

CITY           SKY/WX    TMP DP  RH WIND       PRES   REMARKS
KANSAS CTY INT CLOUDY    61  52  72 SE8       30.20F
6HR MIN TEMP:  58; 6HR MAX TEMP:  64;

KANSAS C DTWN  CLOUDY    64  50  60 SE8       30.20S
6HR MIN TEMP:  63; 6HR MAX TEMP:  65;

LEE`S SUMMIT   CLOUDY    61  52  72 SE6       30.21F
6HR MIN TEMP:  60; 6HR MAX TEMP:  62;

ST JOSEPH      CLOUDY    59  51  75 CALM      30.21S
6HR MIN TEMP:  59; 6HR MAX TEMP:  65;

CHILLICOTHE      N/A     59  55  87 CALM      30.24R
6HR MIN TEMP:  58; 6HR MAX TEMP:  69;

KIRKSVILLE     PTCLDY    53  51  93 CALM      30.24S
6HR MIN TEMP:  53; 6HR MAX TEMP:  66;


$$
MOZ066>068-077>081-088>096-101>105-230700-
...SOUTHWEST MISSOURI...

CITY           SKY/WX    TMP DP  RH WIND       PRES   REMARKS
SPRINGFIELD    CLOUDY    60  47  61 SE17      30.22S
6HR MIN TEMP:  60; 6HR MAX TEMP:  63;

JOPLIN         CLOUDY    61  50  67 SE9       30.21R
6HR MIN TEMP:  60; 6HR MAX TEMP:  64;


$$
MOZ032>034-039>042-045>050-055>058-069>072-230700-
...CENTRAL MISSOURI...

CITY           SKY/WX    TMP DP  RH WIND       PRES   REMARKS
COLUMBIA       CLOUDY    62  52  69 SE5       30.24R
6HR MIN TEMP:  61; 6HR MAX TEMP:  67; 6HR PCP: TRACE;

JEFFERSON CITY CLOUDY    62  56  80 SE3       30.24R
6HR MIN TEMP:  62; 6HR MAX TEMP:  69;

ROLLA          CLOUDY    60  52  74 S5        30.24R
6HR MIN TEMP:  60; 6HR MAX TEMP:  66;

SEDALIA        CLOUDY    62  53  72 SE6       30.24S
6HR MIN TEMP:  62; 6HR MAX TEMP:  67; 6HR PCP: TRACE;

WARRENSBURG    CLOUDY    61  52  72 SE6       30.22S
OSAGE BEACH    CLOUDY    59  54  82 CALM      30.25R

$$
MOZ051-052-059>065-230700-
...EAST CENTRAL MISSOURI...

CITY           SKY/WX    TMP DP  RH WIND       PRES   REMARKS
ST LOUIS INTL  CLOUDY    66  52  60 CALM      30.25S
6HR MIN TEMP:  65; 6HR MAX TEMP:  73;

SPIRIT OF STL  CLOUDY    59  58  96 CALM      30.24F
6HR MIN TEMP:  59; 6HR MAX TEMP:  71;

ST CHARLES     CLOUDY    63  56  78 CALM      30.24S
6HR MIN TEMP:  61; 6HR MAX TEMP:  73;


$$
MOZ072>076-082>087-097>100-106>115-230700-
...SOUTH CENTRAL AND SOUTHEAST MISSOURI...

CITY           SKY/WX    TMP DP  RH WIND       PRES   REMARKS
CAPE GIRARDEAU PTCLDY    58  57  97 CALM      30.24F
6HR MIN TEMP:  57; 6HR MAX TEMP:  68;

FARMINGTON     CLOUDY    59  54  82 CALM      30.30S
6HR MIN TEMP:  57; 6HR MAX TEMP:  68;

POPLAR BLUFF   CLOUDY    58  55  90 N3        30.24R
6HR MIN TEMP:  57; 6HR MAX TEMP:  68;

WEST PLAINS    CLOUDY    58  50  75 E5        30.27R
6HR MIN TEMP:  58; 6HR MAX TEMP:  63;


$$



USA.gov is the U.S. government's official web portal to all federal, state and local government web resources and services.